Year,Month,Day,Hour,Minute,Value (Times are PST for temperature in C)
2018,06,15,00,00,13.20
2018,06,15,00,01,13.20
2018,06,15,00,02,13.20
2018,06,15,00,03,13.20
2018,06,15,00,04,13.20
2018,06,15,00,05,13.20
2018,06,15,00,06,13.20
2018,06,15,00,07,13.20
2018,06,15,00,08,13.20
2018,06,15,00,09,13.20
2018,06,15,00,10,13.20
2018,06,15,00,11,13.10
2018,06,15,00,12,13.10
2018,06,15,00,13,13.10
2018,06,15,00,14,13.10
2018,06,15,00,15,13.10
2018,06,15,00,16,13.10
2018,06,15,00,17,13.10
2018,06,15,00,18,13.10
2018,06,15,00,19,13.00
2018,06,15,00,20,13.00
2018,06,15,00,21,13.00
2018,06,15,00,22,13.00
2018,06,15,00,23,13.00
2018,06,15,00,24,13.00
2018,06,15,00,25,12.90
2018,06,15,00,26,12.90
2018,06,15,00,27,12.90
2018,06,15,00,28,12.90
2018,06,15,00,29,12.90
2018,06,15,00,30,12.90
2018,06,15,00,31,12.90
2018,06,15,00,32,12.90
2018,06,15,00,33,12.90
2018,06,15,00,34,12.80
2018,06,15,00,35,12.90
2018,06,15,00,36,12.80
2018,06,15,00,37,12.80
2018,06,15,00,38,12.80
2018,06,15,00,39,12.80
2018,06,15,00,40,12.80
2018,06,15,00,41,12.80
2018,06,15,00,42,12.80
2018,06,15,00,43,12.80
2018,06,15,00,44,12.80
2018,06,15,00,45,12.80
2018,06,15,00,46,12.80
2018,06,15,00,47,12.80
2018,06,15,00,48,12.70
2018,06,15,00,49,12.70
2018,06,15,00,50,12.70
2018,06,15,00,51,12.70
2018,06,15,00,52,12.70
2018,06,15,00,53,12.70
2018,06,15,00,54,12.70
2018,06,15,00,55,12.70
2018,06,15,00,56,12.70
2018,06,15,00,57,12.70
2018,06,15,00,58,12.70
2018,06,15,00,59,12.70
2018,06,15,01,00,12.70
2018,06,15,01,01,12.70
2018,06,15,01,02,12.60
2018,06,15,01,03,12.60
2018,06,15,01,04,12.60
2018,06,15,01,05,12.60
2018,06,15,01,06,12.60
2018,06,15,01,07,12.60
2018,06,15,01,08,12.60
2018,06,15,01,09,12.60
2018,06,15,01,10,12.60
2018,06,15,01,11,12.60
2018,06,15,01,12,12.60
2018,06,15,01,13,12.60
2018,06,15,01,14,12.60
2018,06,15,01,15,12.60
2018,06,15,01,16,12.60
2018,06,15,01,17,12.60
2018,06,15,01,18,12.60
2018,06,15,01,19,12.60
2018,06,15,01,20,12.50
2018,06,15,01,21,12.60
2018,06,15,01,22,12.50
2018,06,15,01,23,12.60
2018,06,15,01,24,12.60
2018,06,15,01,25,12.60
2018,06,15,01,26,12.60
2018,06,15,01,27,12.60
2018,06,15,01,28,12.60
2018,06,15,01,29,12.60
2018,06,15,01,30,12.60
2018,06,15,01,31,12.60
2018,06,15,01,32,12.60
2018,06,15,01,33,12.60
2018,06,15,01,34,12.60
2018,06,15,01,35,12.60
2018,06,15,01,36,12.60
2018,06,15,01,37,12.60
2018,06,15,01,38,12.60
2018,06,15,01,39,12.60
2018,06,15,01,40,12.60
2018,06,15,01,41,12.60
2018,06,15,01,42,12.60
2018,06,15,01,43,12.60
2018,06,15,01,44,12.60
2018,06,15,01,45,12.60
2018,06,15,01,46,12.60
2018,06,15,01,47,12.60
2018,06,15,01,48,12.50
2018,06,15,01,49,12.50
2018,06,15,01,50,12.50
2018,06,15,01,51,12.50
2018,06,15,01,52,12.50
2018,06,15,01,53,12.50
2018,06,15,01,54,12.40
2018,06,15,01,55,12.40
2018,06,15,01,56,12.40
2018,06,15,01,57,12.40
2018,06,15,01,58,12.40
2018,06,15,01,59,12.30
2018,06,15,02,00,12.30
2018,06,15,02,01,12.30
2018,06,15,02,02,12.30
2018,06,15,02,03,12.30
2018,06,15,02,04,12.30
2018,06,15,02,05,12.20
2018,06,15,02,06,12.20
2018,06,15,02,07,12.20
2018,06,15,02,08,12.20
2018,06,15,02,09,12.20
2018,06,15,02,10,12.20
2018,06,15,02,11,12.10
2018,06,15,02,12,12.10
2018,06,15,02,13,12.10
2018,06,15,02,14,12.10
2018,06,15,02,15,12.10
2018,06,15,02,16,12.10
2018,06,15,02,17,12.10
2018,06,15,02,18,12.10
2018,06,15,02,19,12.10
2018,06,15,02,20,12.10
2018,06,15,02,21,12.10
2018,06,15,02,22,12.10
2018,06,15,02,23,12.10
2018,06,15,02,24,12.10
2018,06,15,02,25,12.10
2018,06,15,02,26,12.00
2018,06,15,02,27,12.00
2018,06,15,02,28,12.00
2018,06,15,02,29,12.00
2018,06,15,02,30,12.00
2018,06,15,02,31,12.00
2018,06,15,02,32,12.00
2018,06,15,02,33,12.00
2018,06,15,02,34,12.00
2018,06,15,02,35,12.00
2018,06,15,02,36,11.90
2018,06,15,02,37,11.90
2018,06,15,02,38,11.90
2018,06,15,02,39,11.90
2018,06,15,02,40,11.90
2018,06,15,02,41,11.90
2018,06,15,02,42,11.80
2018,06,15,02,43,11.80
2018,06,15,02,44,11.80
2018,06,15,02,45,11.80
2018,06,15,02,46,11.80
2018,06,15,02,47,11.70
2018,06,15,02,48,11.70
2018,06,15,02,49,11.70
2018,06,15,02,50,11.70
2018,06,15,02,51,11.70
2018,06,15,02,52,11.70
2018,06,15,02,53,11.60
2018,06,15,02,54,11.60
2018,06,15,02,55,11.60
2018,06,15,02,56,11.60
2018,06,15,02,57,11.60
2018,06,15,02,58,11.50
2018,06,15,02,59,11.50
2018,06,15,03,00,11.50
2018,06,15,03,01,11.50
2018,06,15,03,02,11.50
2018,06,15,03,03,11.50
2018,06,15,03,04,11.50
2018,06,15,03,05,11.40
2018,06,15,03,06,11.40
2018,06,15,03,07,11.40
2018,06,15,03,08,11.40
2018,06,15,03,09,11.40
2018,06,15,03,10,11.40
2018,06,15,03,11,11.40
2018,06,15,03,12,11.40
2018,06,15,03,13,11.40
2018,06,15,03,14,11.40
2018,06,15,03,15,11.40
2018,06,15,03,16,11.40
2018,06,15,03,17,11.40
2018,06,15,03,18,11.40
2018,06,15,03,19,11.40
2018,06,15,03,20,11.40
2018,06,15,03,21,11.40
2018,06,15,03,22,11.40
2018,06,15,03,23,11.40
2018,06,15,03,24,11.40
2018,06,15,03,25,11.40
2018,06,15,03,26,11.40
2018,06,15,03,27,11.40
2018,06,15,03,28,11.40
2018,06,15,03,29,11.30
2018,06,15,03,30,11.30
2018,06,15,03,31,11.30
2018,06,15,03,32,11.30
2018,06,15,03,33,11.30
2018,06,15,03,34,11.30
2018,06,15,03,35,11.30
2018,06,15,03,36,11.30
2018,06,15,03,37,11.30
2018,06,15,03,38,11.30
2018,06,15,03,39,11.30
2018,06,15,03,40,11.30
2018,06,15,03,41,11.30
2018,06,15,03,42,11.30
2018,06,15,03,43,11.30
2018,06,15,03,44,11.30
2018,06,15,03,45,11.30
2018,06,15,03,46,11.20
2018,06,15,03,47,11.20
2018,06,15,03,48,11.20
2018,06,15,03,49,11.20
2018,06,15,03,50,11.20
2018,06,15,03,51,11.20
2018,06,15,03,52,11.20
2018,06,15,03,53,11.20
2018,06,15,03,54,11.20
2018,06,15,03,55,11.20
2018,06,15,03,56,11.20
2018,06,15,03,57,11.20
2018,06,15,03,58,11.20
2018,06,15,03,59,11.20
2018,06,15,04,00,11.20
2018,06,15,04,01,11.10
2018,06,15,04,02,11.10
2018,06,15,04,03,11.10
2018,06,15,04,04,11.10
2018,06,15,04,05,11.10
2018,06,15,04,06,11.10
2018,06,15,04,07,11.10
2018,06,15,04,08,11.10
2018,06,15,04,09,11.10
2018,06,15,04,10,11.00
2018,06,15,04,11,11.00
2018,06,15,04,12,11.00
2018,06,15,04,13,11.00
2018,06,15,04,14,11.00
2018,06,15,04,15,11.00
2018,06,15,04,16,10.90
2018,06,15,04,17,10.90
2018,06,15,04,18,10.90
2018,06,15,04,19,10.90
2018,06,15,04,20,10.90
2018,06,15,04,21,10.90
2018,06,15,04,22,10.80
2018,06,15,04,23,10.80
2018,06,15,04,24,10.80
2018,06,15,04,25,10.80
2018,06,15,04,26,10.80
2018,06,15,04,27,10.80
2018,06,15,04,28,10.80
2018,06,15,04,29,10.80
2018,06,15,04,30,10.80
2018,06,15,04,31,10.80
2018,06,15,04,32,10.80
2018,06,15,04,33,10.70
2018,06,15,04,34,10.70
2018,06,15,04,35,10.70
2018,06,15,04,36,10.70
2018,06,15,04,37,10.70
2018,06,15,04,38,10.70
2018,06,15,04,39,10.70
2018,06,15,04,40,10.70
2018,06,15,04,41,10.70
2018,06,15,04,42,10.70
2018,06,15,04,43,10.70
2018,06,15,04,44,10.60
2018,06,15,04,45,10.60
2018,06,15,04,46,10.60
2018,06,15,04,47,10.60
2018,06,15,04,48,10.60
2018,06,15,04,49,10.60
2018,06,15,04,50,10.60
2018,06,15,04,51,10.60
2018,06,15,04,52,10.60
2018,06,15,04,53,10.60
2018,06,15,04,54,10.50
2018,06,15,04,55,10.50
2018,06,15,04,56,10.50
2018,06,15,04,57,10.50
2018,06,15,04,58,10.50
2018,06,15,04,59,10.50
2018,06,15,05,00,10.50
2018,06,15,05,01,10.40
2018,06,15,05,02,10.40
2018,06,15,05,03,10.40
2018,06,15,05,04,10.40
2018,06,15,05,05,10.40
2018,06,15,05,06,10.40
2018,06,15,05,07,10.40
2018,06,15,05,08,10.40
2018,06,15,05,09,10.40
2018,06,15,05,10,10.40
2018,06,15,05,11,10.40
2018,06,15,05,12,10.40
2018,06,15,05,13,10.40
2018,06,15,05,14,10.40
2018,06,15,05,15,10.40
2018,06,15,05,16,10.40
2018,06,15,05,17,10.40
2018,06,15,05,18,10.40
2018,06,15,05,19,10.40
2018,06,15,05,20,10.40
2018,06,15,05,21,10.40
2018,06,15,05,22,10.40
2018,06,15,05,23,10.40
2018,06,15,05,24,10.40
2018,06,15,05,25,10.40
2018,06,15,05,26,10.30
2018,06,15,05,27,10.30
2018,06,15,05,28,10.30
2018,06,15,05,29,10.30
2018,06,15,05,30,10.30
2018,06,15,05,31,10.30
2018,06,15,05,32,10.30
2018,06,15,05,33,10.30
2018,06,15,05,34,10.30
2018,06,15,05,35,10.30
2018,06,15,05,36,10.30
2018,06,15,05,37,10.30
2018,06,15,05,38,10.30
2018,06,15,05,39,10.30
2018,06,15,05,40,10.30
2018,06,15,05,41,10.30
2018,06,15,05,42,10.30
2018,06,15,05,43,10.30
2018,06,15,05,44,10.30
2018,06,15,05,45,10.40
2018,06,15,05,46,10.40
2018,06,15,05,47,10.40
2018,06,15,05,48,10.40
2018,06,15,05,49,10.40
2018,06,15,05,50,10.40
2018,06,15,05,51,10.40
2018,06,15,05,52,10.50
2018,06,15,05,53,10.50
2018,06,15,05,54,10.50
2018,06,15,05,55,10.60
2018,06,15,05,56,10.60
2018,06,15,05,57,10.60
2018,06,15,05,58,10.60
2018,06,15,05,59,10.70
2018,06,15,06,00,10.70
2018,06,15,06,01,10.70
2018,06,15,06,02,10.70
2018,06,15,06,03,10.70
2018,06,15,06,04,10.80
2018,06,15,06,05,10.80
2018,06,15,06,06,10.80
2018,06,15,06,07,10.80
2018,06,15,06,08,10.80
2018,06,15,06,09,10.80
2018,06,15,06,10,10.80
2018,06,15,06,11,10.80
2018,06,15,06,12,10.80
2018,06,15,06,13,10.80
2018,06,15,06,14,10.80
2018,06,15,06,15,10.80
2018,06,15,06,16,10.90
2018,06,15,06,17,10.90
2018,06,15,06,18,10.90
2018,06,15,06,19,10.90
2018,06,15,06,20,11.00
2018,06,15,06,21,11.00
2018,06,15,06,22,11.00
2018,06,15,06,23,11.00
2018,06,15,06,24,11.00
2018,06,15,06,25,11.10
2018,06,15,06,26,11.10
2018,06,15,06,27,11.10
2018,06,15,06,28,11.10
2018,06,15,06,29,11.10
2018,06,15,06,30,11.10
2018,06,15,06,31,11.10
2018,06,15,06,32,11.20
2018,06,15,06,33,11.20
2018,06,15,06,34,11.20
2018,06,15,06,35,11.20
2018,06,15,06,36,11.20
2018,06,15,06,37,11.20
2018,06,15,06,38,11.20
2018,06,15,06,39,11.20
2018,06,15,06,40,11.30
2018,06,15,06,41,11.30
2018,06,15,06,42,11.30
2018,06,15,06,43,11.30
2018,06,15,06,44,11.30
2018,06,15,06,45,11.30
2018,06,15,06,46,11.40
2018,06,15,06,47,11.40
2018,06,15,06,48,11.40
2018,06,15,06,49,11.50
2018,06,15,06,50,11.50
2018,06,15,06,51,11.50
2018,06,15,06,52,11.60
2018,06,15,06,53,11.60
2018,06,15,06,54,11.60
2018,06,15,06,55,11.60
2018,06,15,06,56,11.70
2018,06,15,06,57,11.70
2018,06,15,06,58,11.70
2018,06,15,06,59,11.70
2018,06,15,07,00,11.70
2018,06,15,07,01,11.70
2018,06,15,07,02,11.70
2018,06,15,07,03,11.70
2018,06,15,07,04,11.80
2018,06,15,07,05,11.80
2018,06,15,07,06,11.80
2018,06,15,07,07,11.80
2018,06,15,07,08,11.80
2018,06,15,07,09,11.80
2018,06,15,07,10,11.90
2018,06,15,07,11,11.90
2018,06,15,07,12,11.90
2018,06,15,07,13,11.90
2018,06,15,07,14,11.90
2018,06,15,07,15,11.90
2018,06,15,07,16,11.90
2018,06,15,07,17,12.00
2018,06,15,07,18,12.00
2018,06,15,07,19,12.00
2018,06,15,07,20,12.10
2018,06,15,07,21,12.10
2018,06,15,07,22,12.10
2018,06,15,07,23,12.10
2018,06,15,07,24,12.10
2018,06,15,07,25,12.10
2018,06,15,07,26,12.10
2018,06,15,07,27,12.10
2018,06,15,07,28,12.20
2018,06,15,07,29,12.20
2018,06,15,07,30,12.20
2018,06,15,07,31,12.20
2018,06,15,07,32,12.20
2018,06,15,07,33,12.20
2018,06,15,07,34,12.20
2018,06,15,07,35,12.30
2018,06,15,07,36,12.30
2018,06,15,07,37,12.30
2018,06,15,07,38,12.30
2018,06,15,07,39,12.40
2018,06,15,07,40,12.40
2018,06,15,07,41,12.40
2018,06,15,07,42,12.40
2018,06,15,07,43,12.40
2018,06,15,07,44,12.50
2018,06,15,07,45,12.50
2018,06,15,07,46,12.50
2018,06,15,07,47,12.60
2018,06,15,07,48,12.60
2018,06,15,07,49,12.60
2018,06,15,07,50,12.60
2018,06,15,07,51,12.60
2018,06,15,07,52,12.70
2018,06,15,07,53,12.70
2018,06,15,07,54,12.70
2018,06,15,07,55,12.70
2018,06,15,07,56,12.70
2018,06,15,07,57,12.70
2018,06,15,07,58,12.70
2018,06,15,07,59,12.70
2018,06,15,08,00,12.70
2018,06,15,08,01,12.70
2018,06,15,08,02,12.80
2018,06,15,08,03,12.80
2018,06,15,08,04,12.80
2018,06,15,08,05,12.80
2018,06,15,08,06,12.80
2018,06,15,08,07,12.80
2018,06,15,08,08,12.80
2018,06,15,08,09,12.80
2018,06,15,08,10,12.90
2018,06,15,08,11,12.90
2018,06,15,08,12,12.90
2018,06,15,08,13,12.90
2018,06,15,08,14,13.00
2018,06,15,08,15,13.00
2018,06,15,08,16,13.00
2018,06,15,08,17,13.10
2018,06,15,08,18,13.10
2018,06,15,08,19,13.10
2018,06,15,08,20,13.10
2018,06,15,08,21,13.20
2018,06,15,08,22,13.20
2018,06,15,08,23,13.20
2018,06,15,08,24,13.30
2018,06,15,08,25,13.30
2018,06,15,08,26,13.40
2018,06,15,08,27,13.50
2018,06,15,08,28,13.50
2018,06,15,08,29,13.60
2018,06,15,08,30,13.70
2018,06,15,08,31,13.70
2018,06,15,08,32,13.80
2018,06,15,08,33,13.80
2018,06,15,08,34,13.90
2018,06,15,08,35,14.00
2018,06,15,08,36,14.10
2018,06,15,08,37,14.10
2018,06,15,08,38,14.20
2018,06,15,08,39,14.30
2018,06,15,08,40,14.40
2018,06,15,08,41,14.50
2018,06,15,08,42,14.60
2018,06,15,08,43,14.70
2018,06,15,08,44,14.80
2018,06,15,08,45,14.90
2018,06,15,08,46,15.00
2018,06,15,08,47,15.10
2018,06,15,08,48,15.20
2018,06,15,08,49,15.30
2018,06,15,08,50,15.40
2018,06,15,08,52,15.50
2018,06,15,08,53,15.50
2018,06,15,08,54,15.60
2018,06,15,08,55,15.70
2018,06,15,08,56,15.80
2018,06,15,08,57,15.80
2018,06,15,08,58,15.90
2018,06,15,08,59,15.90
2018,06,15,09,00,16.00
2018,06,15,09,01,16.00
2018,06,15,09,02,16.10
2018,06,15,09,03,16.10
2018,06,15,09,04,16.10
2018,06,15,09,05,16.10
2018,06,15,09,06,16.20
2018,06,15,09,07,16.20
2018,06,15,09,08,16.20
2018,06,15,09,09,16.20
2018,06,15,09,10,16.20
2018,06,15,09,11,16.20
2018,06,15,09,12,16.30
2018,06,15,09,13,16.30
2018,06,15,09,14,16.20
2018,06,15,09,15,16.20
2018,06,15,09,16,16.20
2018,06,15,09,17,16.10
2018,06,15,09,18,16.10
2018,06,15,09,19,16.10
2018,06,15,09,20,16.10
2018,06,15,09,21,16.10
2018,06,15,09,22,16.10
2018,06,15,09,23,16.10
2018,06,15,09,24,16.10
2018,06,15,09,25,16.10
2018,06,15,09,26,16.10
2018,06,15,09,27,16.10
2018,06,15,09,28,16.10
2018,06,15,09,29,16.00
2018,06,15,09,30,15.90
2018,06,15,09,31,15.90
2018,06,15,09,32,15.80
2018,06,15,09,33,15.80
2018,06,15,09,34,15.80
2018,06,15,09,35,15.80
2018,06,15,09,36,15.80
2018,06,15,09,37,15.80
2018,06,15,09,38,15.90
2018,06,15,09,39,15.80
2018,06,15,09,40,15.80
2018,06,15,09,41,15.80
2018,06,15,09,42,15.90
2018,06,15,09,43,15.90
2018,06,15,09,44,15.90
2018,06,15,09,45,15.90
2018,06,15,09,46,15.90
2018,06,15,09,47,15.90
2018,06,15,09,48,15.90
2018,06,15,09,49,15.90
2018,06,15,09,50,15.90
2018,06,15,09,51,15.80
2018,06,15,09,52,15.80
2018,06,15,09,53,15.90
2018,06,15,09,54,15.90
2018,06,15,09,55,15.90
2018,06,15,09,56,15.90
2018,06,15,09,57,15.80
2018,06,15,09,58,15.80
2018,06,15,09,59,15.80
2018,06,15,10,00,15.80
2018,06,15,10,01,15.70
2018,06,15,10,02,15.70
2018,06,15,10,03,15.60
2018,06,15,10,04,15.60
2018,06,15,10,05,15.60
2018,06,15,10,06,15.60
2018,06,15,10,07,15.60
2018,06,15,10,08,15.60
2018,06,15,10,09,15.60
2018,06,15,10,10,15.60
2018,06,15,10,11,15.60
2018,06,15,10,12,15.60
2018,06,15,10,13,15.50
2018,06,15,10,14,15.50
2018,06,15,10,15,15.50
2018,06,15,10,16,15.50
2018,06,15,10,17,15.60
2018,06,15,10,18,15.60
2018,06,15,10,19,15.60
2018,06,15,10,20,15.60
2018,06,15,10,21,15.50
2018,06,15,10,22,15.50
2018,06,15,10,23,15.40
2018,06,15,10,24,15.40
2018,06,15,10,25,15.30
2018,06,15,10,26,15.30
2018,06,15,10,27,15.30
2018,06,15,10,28,15.30
2018,06,15,10,29,15.30
2018,06,15,10,30,15.30
2018,06,15,10,31,15.40
2018,06,15,10,32,15.40
2018,06,15,10,33,15.40
2018,06,15,10,34,15.40
2018,06,15,10,35,15.50
2018,06,15,10,36,15.50
2018,06,15,10,37,15.60
2018,06,15,10,38,15.60
2018,06,15,10,39,15.60
2018,06,15,10,40,15.70
2018,06,15,10,41,15.70
2018,06,15,10,42,15.70
2018,06,15,10,43,15.70
2018,06,15,10,44,15.70
2018,06,15,10,45,15.70
2018,06,15,10,46,15.70
2018,06,15,10,47,15.70
2018,06,15,10,48,15.70
2018,06,15,10,49,15.80
2018,06,15,10,50,15.80
2018,06,15,10,51,15.80
2018,06,15,10,52,15.80
2018,06,15,10,53,15.80
2018,06,15,10,54,15.80
2018,06,15,10,55,15.80
2018,06,15,10,56,15.80
2018,06,15,10,57,15.80
2018,06,15,10,58,15.80
2018,06,15,10,59,15.80
2018,06,15,11,00,15.80
2018,06,15,11,01,15.90
2018,06,15,11,02,15.90
2018,06,15,11,03,15.90
2018,06,15,11,04,15.90
2018,06,15,11,05,16.00
2018,06,15,11,06,16.00
2018,06,15,11,07,16.00
2018,06,15,11,08,16.10
2018,06,15,11,09,16.10
2018,06,15,11,10,16.20
2018,06,15,11,11,16.20
2018,06,15,11,12,16.20
2018,06,15,11,13,16.20
2018,06,15,11,14,16.20
2018,06,15,11,15,16.20
2018,06,15,11,16,16.10
2018,06,15,11,17,16.10
2018,06,15,11,18,16.00
2018,06,15,11,19,16.00
2018,06,15,11,20,16.00
2018,06,15,11,21,16.00
2018,06,15,11,22,16.10
2018,06,15,11,23,16.10
2018,06,15,11,24,16.10
2018,06,15,11,25,16.10
2018,06,15,11,26,16.10
2018,06,15,11,27,16.10
2018,06,15,11,28,16.10
2018,06,15,11,29,16.20
2018,06,15,11,30,16.20
2018,06,15,11,31,16.20
2018,06,15,11,32,16.20
2018,06,15,11,33,16.30
2018,06,15,11,34,16.30
2018,06,15,11,35,16.30
2018,06,15,11,36,16.30
2018,06,15,11,37,16.40
2018,06,15,11,38,16.40
2018,06,15,11,39,16.40
2018,06,15,11,40,16.40
2018,06,15,11,41,16.40
2018,06,15,11,42,16.30
2018,06,15,11,43,16.40
2018,06,15,11,44,16.30
2018,06,15,11,45,16.30
2018,06,15,11,46,16.30
2018,06,15,11,47,16.30
2018,06,15,11,48,16.20
2018,06,15,11,49,16.20
2018,06,15,11,50,16.20
2018,06,15,11,51,16.30
2018,06,15,11,52,16.30
2018,06,15,11,53,16.30
2018,06,15,11,54,16.30
2018,06,15,11,55,16.30
2018,06,15,11,56,16.30
2018,06,15,11,57,16.30
2018,06,15,11,58,16.30
2018,06,15,11,59,16.30
2018,06,15,12,00,16.30
2018,06,15,12,01,16.30
2018,06,15,12,02,16.30
2018,06,15,12,03,16.30
2018,06,15,12,04,16.40
2018,06,15,12,05,16.40
2018,06,15,12,06,16.40
2018,06,15,12,07,16.40
2018,06,15,12,08,16.30
2018,06,15,12,09,16.30
2018,06,15,12,10,16.30
2018,06,15,12,11,16.20
2018,06,15,12,12,16.30
2018,06,15,12,13,16.30
2018,06,15,12,14,16.30
2018,06,15,12,15,16.30
2018,06,15,12,16,16.30
2018,06,15,12,17,16.30
2018,06,15,12,18,16.30
2018,06,15,12,19,16.30
2018,06,15,12,20,16.30
2018,06,15,12,21,16.30
2018,06,15,12,22,16.30
2018,06,15,12,23,16.30
2018,06,15,12,24,16.20
2018,06,15,12,25,16.20
2018,06,15,12,26,16.20
2018,06,15,12,27,16.20
2018,06,15,12,28,16.20
2018,06,15,12,29,16.20
2018,06,15,12,30,16.20
2018,06,15,12,31,16.10
2018,06,15,12,32,16.10
2018,06,15,12,33,16.10
2018,06,15,12,34,16.10
2018,06,15,12,35,16.00
2018,06,15,12,36,16.00
2018,06,15,12,37,16.00
2018,06,15,12,38,16.00
2018,06,15,12,39,16.00
2018,06,15,12,40,16.00
2018,06,15,12,41,16.10
2018,06,15,12,42,16.10
2018,06,15,12,43,16.10
2018,06,15,12,44,16.10
2018,06,15,12,45,16.10
2018,06,15,12,46,16.10
2018,06,15,12,47,16.10
2018,06,15,12,48,16.10
2018,06,15,12,49,16.20
2018,06,15,12,50,16.20
2018,06,15,12,51,16.20
2018,06,15,12,52,16.20
2018,06,15,12,53,16.20
2018,06,15,12,54,16.20
2018,06,15,12,55,16.10
2018,06,15,12,56,16.10
2018,06,15,12,57,16.10
2018,06,15,12,58,16.20
2018,06,15,12,59,16.20
2018,06,15,13,00,16.30
2018,06,15,13,01,16.30
2018,06,15,13,02,16.30
2018,06,15,13,03,16.30
2018,06,15,13,04,16.30
2018,06,15,13,05,16.30
2018,06,15,13,06,16.30
2018,06,15,13,07,16.30
2018,06,15,13,08,16.30
2018,06,15,13,09,16.30
2018,06,15,13,10,16.30
2018,06,15,13,11,16.30
2018,06,15,13,12,16.30
2018,06,15,13,13,16.30
2018,06,15,13,14,16.40
2018,06,15,13,15,16.40
2018,06,15,13,16,16.50
2018,06,15,13,17,16.50
2018,06,15,13,18,16.60
2018,06,15,13,19,16.70
2018,06,15,13,20,16.70
2018,06,15,13,21,16.80
2018,06,15,13,22,16.80
2018,06,15,13,23,16.90
2018,06,15,13,24,17.00
2018,06,15,13,25,17.00
2018,06,15,13,26,17.10
2018,06,15,13,27,17.20
2018,06,15,13,28,17.20
2018,06,15,13,29,17.20
2018,06,15,13,30,17.20
2018,06,15,13,31,17.20
2018,06,15,13,32,17.30
2018,06,15,13,33,17.30
2018,06,15,13,34,17.30
2018,06,15,13,35,17.30
2018,06,15,13,36,17.40
2018,06,15,13,37,17.40
2018,06,15,13,38,17.40
2018,06,15,13,39,17.40
2018,06,15,13,40,17.50
2018,06,15,13,41,17.60
2018,06,15,13,42,17.60
2018,06,15,13,43,17.70
2018,06,15,13,44,17.80
2018,06,15,13,45,17.80
2018,06,15,13,46,17.80
2018,06,15,13,47,17.80
2018,06,15,13,48,17.90
2018,06,15,13,49,17.90
2018,06,15,13,50,17.90
2018,06,15,13,51,17.90
2018,06,15,13,52,17.90
2018,06,15,13,53,17.90
2018,06,15,13,54,17.90
2018,06,15,13,55,18.00
2018,06,15,13,56,18.00
2018,06,15,13,57,18.00
2018,06,15,13,58,18.10
2018,06,15,13,59,18.10
2018,06,15,14,00,18.10
2018,06,15,14,01,18.20
2018,06,15,14,02,18.10
2018,06,15,14,03,18.10
2018,06,15,14,04,18.10
2018,06,15,14,05,18.10
2018,06,15,14,06,18.10
2018,06,15,14,07,18.20
2018,06,15,14,08,18.30
2018,06,15,14,09,18.30
2018,06,15,14,10,18.30
2018,06,15,14,11,18.30
2018,06,15,14,12,18.40
2018,06,15,14,13,18.40
2018,06,15,14,14,18.40
2018,06,15,14,15,18.40
2018,06,15,14,16,18.40
2018,06,15,14,17,18.40
2018,06,15,14,18,18.40
2018,06,15,14,19,18.50
2018,06,15,14,20,18.40
2018,06,15,14,21,18.40
2018,06,15,14,22,18.30
2018,06,15,14,23,18.20
2018,06,15,14,24,18.20
2018,06,15,14,25,18.20
2018,06,15,14,26,18.20
2018,06,15,14,27,18.30
2018,06,15,14,28,18.30
2018,06,15,14,29,18.30
2018,06,15,14,30,18.30
2018,06,15,14,31,18.30
2018,06,15,14,32,18.30
2018,06,15,14,33,18.30
2018,06,15,14,34,18.30
2018,06,15,14,35,18.40
2018,06,15,14,36,18.40
2018,06,15,14,37,18.40
2018,06,15,14,38,18.40
2018,06,15,14,39,18.40
2018,06,15,14,40,18.50
2018,06,15,14,41,18.50
2018,06,15,14,42,18.50
2018,06,15,14,43,18.40
2018,06,15,14,44,18.40
2018,06,15,14,45,18.40
2018,06,15,14,46,18.40
2018,06,15,14,47,18.30
2018,06,15,14,48,18.30
2018,06,15,14,49,18.30
2018,06,15,14,50,18.30
2018,06,15,14,51,18.30
2018,06,15,14,52,18.40
2018,06,15,14,53,18.40
2018,06,15,14,54,18.60
2018,06,15,14,55,18.70
2018,06,15,14,56,18.70
2018,06,15,14,57,18.80
2018,06,15,14,58,18.80
2018,06,15,14,59,18.80
2018,06,15,15,00,18.80
2018,06,15,15,01,18.80
2018,06,15,15,02,18.80
2018,06,15,15,03,18.80
2018,06,15,15,04,18.80
2018,06,15,15,05,18.80
2018,06,15,15,06,18.80
2018,06,15,15,07,18.80
2018,06,15,15,08,18.80
2018,06,15,15,09,18.80
2018,06,15,15,10,18.80
2018,06,15,15,11,18.80
2018,06,15,15,12,18.80
2018,06,15,15,13,18.80
2018,06,15,15,14,18.80
2018,06,15,15,15,18.80
2018,06,15,15,16,18.90
2018,06,15,15,17,18.90
2018,06,15,15,18,18.90
2018,06,15,15,19,18.90
2018,06,15,15,20,18.90
2018,06,15,15,21,18.90
2018,06,15,15,22,18.90
2018,06,15,15,23,18.90
2018,06,15,15,24,19.00
2018,06,15,15,25,19.00
2018,06,15,15,26,19.10
2018,06,15,15,27,19.10
2018,06,15,15,28,19.10
2018,06,15,15,29,19.10
2018,06,15,15,30,19.20
2018,06,15,15,31,19.20
2018,06,15,15,32,19.20
2018,06,15,15,33,19.10
2018,06,15,15,34,19.10
2018,06,15,15,35,19.10
2018,06,15,15,36,19.10
2018,06,15,15,37,19.20
2018,06,15,15,38,19.20
2018,06,15,15,39,19.20
2018,06,15,15,40,19.20
2018,06,15,15,41,19.30
2018,06,15,15,42,19.30
2018,06,15,15,43,19.40
2018,06,15,15,44,19.50
2018,06,15,15,45,19.60
2018,06,15,15,46,19.60
2018,06,15,15,47,19.60
2018,06,15,15,48,19.50
2018,06,15,15,49,19.40
2018,06,15,15,50,19.40
2018,06,15,15,51,19.30
2018,06,15,15,52,19.30
2018,06,15,15,53,19.30
2018,06,15,15,54,19.30
2018,06,15,15,55,19.30
2018,06,15,15,56,19.30
2018,06,15,15,57,19.30
2018,06,15,15,58,19.30
2018,06,15,15,59,19.30
2018,06,15,16,00,19.30
2018,06,15,16,01,19.20
2018,06,15,16,02,19.20
2018,06,15,16,03,19.20
2018,06,15,16,04,19.20
2018,06,15,16,05,19.30
2018,06,15,16,06,19.40
2018,06,15,16,07,19.40
2018,06,15,16,08,19.40
2018,06,15,16,09,19.40
2018,06,15,16,10,19.40
2018,06,15,16,11,19.40
2018,06,15,16,12,19.40
2018,06,15,16,13,19.40
2018,06,15,16,14,19.40
2018,06,15,16,15,19.40
2018,06,15,16,16,19.40
2018,06,15,16,17,19.40
2018,06,15,16,18,19.30
2018,06,15,16,19,19.30
2018,06,15,16,20,19.20
2018,06,15,16,21,19.20
2018,06,15,16,22,19.20
2018,06,15,16,23,19.20
2018,06,15,16,24,19.20
2018,06,15,16,25,19.20
2018,06,15,16,26,19.20
2018,06,15,16,27,19.30
2018,06,15,16,28,19.30
2018,06,15,16,29,19.30
2018,06,15,16,30,19.30
2018,06,15,16,31,19.30
2018,06,15,16,32,19.30
2018,06,15,16,33,19.30
2018,06,15,16,34,19.30
2018,06,15,16,35,19.30
2018,06,15,16,36,19.30
2018,06,15,16,37,19.30
2018,06,15,16,38,19.20
2018,06,15,16,39,19.20
2018,06,15,16,40,19.20
2018,06,15,16,41,19.20
2018,06,15,16,42,19.10
2018,06,15,16,43,19.10
2018,06,15,16,44,19.10
2018,06,15,16,45,19.10
2018,06,15,16,46,19.10
2018,06,15,16,47,19.10
2018,06,15,16,48,19.10
2018,06,15,16,49,19.10
2018,06,15,16,50,19.10
2018,06,15,16,51,19.00
2018,06,15,16,52,18.90
2018,06,15,16,53,18.90
2018,06,15,16,54,18.90
2018,06,15,16,55,18.90
2018,06,15,16,56,18.80
2018,06,15,16,57,18.80
2018,06,15,16,58,18.80
2018,06,15,16,59,18.80
2018,06,15,17,00,18.80
2018,06,15,17,01,18.80
2018,06,15,17,02,18.80
2018,06,15,17,03,18.70
2018,06,15,17,04,18.70
2018,06,15,17,05,18.60
2018,06,15,17,06,18.70
2018,06,15,17,07,18.70
2018,06,15,17,08,18.70
2018,06,15,17,09,18.70
2018,06,15,17,10,18.70
2018,06,15,17,11,18.60
2018,06,15,17,12,18.60
2018,06,15,17,13,18.60
2018,06,15,17,14,18.60
2018,06,15,17,15,18.60
2018,06,15,17,16,18.70
2018,06,15,17,17,18.70
2018,06,15,17,18,18.70
2018,06,15,17,19,18.60
2018,06,15,17,20,18.50